JCSAT-12 (JCSAT-RA)

Last updated on Tue Sep 22 2026 00:03:11 GMT+0000 (Coordinated Universal Time)

1 35755U 09044A 26264.37267682 -.00000332 00000+0 00000+0 0 9990 2 35755 0.0310 270.6313 0002078 315.6131 40.2341 1.00269778 62574
UTC large
Height (km)
Speed (km/s)
/
Latitude / Longitude
Inclination (degrees)
Orbital Period (minutes)
Azimuth
Elevation
Range (km)
Doppler Factor

Next 0 passes for location: London (51.5072 / 0.1276)

No passes found over London.
JCSAT-12 (JCSAT-RA)